Location: Westminster College Observatory
(41.1194°N, 80.3291°W)
Time: 06:56:54
(UTC-04:00)

ISS - Visible Passes

Search period start: 16 July 2018 00:00
Search period end: 26 July 2018 00:00
Orbit: 402 x 408 km, 51.6° (Epoch: 16 July)

Date Brightness Start Highest point End Pass type
(mag) Time Alt. Az. Time Alt. Az. Time Alt. Az.
16 Jul -0.9 01:09:48 16° NNE 01:09:48 16° NNE 01:10:38 10° NE visible
16 Jul -0.7 02:43:00 10° NW 02:44:51 14° N 02:46:43 10° NNE visible
16 Jul -0.7 04:20:09 10° NNW 04:22:21 16° NNE 04:24:33 10° NE visible
17 Jul -0.9 01:51:39 15° NNW 01:52:29 16° NNW 01:54:41 10° NNE visible
17 Jul -0.6 03:28:08 10° NNW 03:30:00 14° N 03:31:52 10° NE visible
17 Jul -1.9 05:04:12 10° NW 05:07:14 33° NNE 05:10:16 10° E visible
18 Jul -1.1 01:00:31 20° N 01:00:31 20° N 01:02:45 10° NNE visible
18 Jul -0.5 02:35:54 10° NNW 02:37:36 13° N 02:39:17 10° NNE visible
18 Jul -1.2 04:12:17 10° NW 04:14:59 23° NNE 04:17:42 10° ENE visible
18 Jul -3.3 22:28:15 10° SSW 22:35:10 - ENE 22:30:47 36° SSE visible
19 Jul -1.8 00:07:09 26° NW 00:07:53 28° NNW 00:10:48 10° NE visible
19 Jul -0.5 01:43:25 10° NW 01:45:12 14° N 01:46:57 10° NNE visible
19 Jul -0.8 03:20:20 10° NNW 03:22:40 18° NNE 03:25:00 10° ENE visible
19 Jul -3.5 04:56:21 10° NW 04:59:38 69° NE 05:02:55 10° ESE visible
19 Jul -2.5 21:36:50 10° S 21:39:22 21° SE 21:41:55 10° E visible
19 Jul -2.7 23:12:31 10° WSW 23:15:39 45° NNW 23:18:50 10° NE visible
20 Jul -0.6 00:50:44 10° NW 00:52:47 15° N 00:54:50 10° NNE visible
20 Jul -0.5 02:28:20 10° NNW 02:30:18 15° N 02:32:15 10° NE visible
20 Jul -2.3 04:04:20 10° NW 04:07:28 39° NNE 04:10:35 10° E visible
20 Jul -3.8 22:20:14 10° WSW 22:23:30 81° NW 22:26:48 10° NE visible
20 Jul -0.9 23:57:59 10° WNW 00:00:24 19° NNW 00:02:49 10° NNE visible
21 Jul -0.4 01:36:09 10° NNW 01:37:52 13° N 01:39:35 10° NE visible
21 Jul -1.5 03:12:22 10° NW 03:15:12 26° NNE 03:18:03 10° E visible
21 Jul -3.6 04:48:39 10° WNW 04:51:50 48° SW 04:55:00 10° SE visible
21 Jul -3.7 21:28:14 10° SW 21:31:25 51° SE 21:34:37 10° ENE visible
21 Jul -1.4 23:05:17 10° W 23:08:04 25° NNW 23:10:51 10° NE visible
22 Jul -0.4 00:43:43 10° NW 00:45:25 13° N 00:47:07 10° NNE visible
22 Jul -1.0 02:20:24 10° NNW 02:22:53 19° NNE 02:25:20 10° ENE visible
22 Jul -3.9 03:56:26 10° NW 03:59:45 87° NE 04:03:02 10° SE visible
22 Jul -1.7 05:35:12 10° WSW 05:35:45 10° SW 05:36:18 10° SW visible
22 Jul -2.2 22:12:42 10° W 22:15:47 37° NNW 22:18:52 10° NE visible
22 Jul -0.5 23:51:03 10° NW 23:52:58 14° N 23:54:53 10° NNE visible
23 Jul -0.7 01:28:23 10° NNW 01:30:29 16° NNE 01:30:52 15° NNE visible
23 Jul -3.3 21:20:19 10° WSW 21:23:33 64° NNW 21:26:49 10° NE visible
23 Jul -0.8 22:58:15 10° WNW 23:00:32 17° NNW 23:02:48 10° NNE visible
24 Jul -0.6 00:36:14 10° NNW 00:38:01 14° N 00:39:27 11° NNE visible
24 Jul -1.2 22:05:29 10° WNW 22:08:08 22° NNW 22:10:47 10° NNE visible
24 Jul -0.6 23:43:52 10° NNW 23:45:32 13° N 23:47:12 10° NNE visible
25 Jul -0.6 01:20:21 10° NNW 01:21:07 14° NNW 01:21:07 14° NNW visible
25 Jul -1.8 21:12:49 10° W 21:15:47 31° NNW 21:18:47 10° NE visible
25 Jul -0.7 22:51:14 10° NW 22:53:02 14° N 22:54:51 10° NNE visible
